ONEWEB-0616 (55157 NORAD) Tracking and Keplerian Element Data

This shows tracking and keplerian element data for the satellite.

Feedback or suggestion? Click here.




ElementValue
Catalog55157
NameONEWEB-0616
Epoch Orbit130
Epoch Day13.91667824
Epoch Year2023
RAAN284.1404
Inclination86.5107
Eccentricity0.0010698
Argument of Perigee199.8187
Mean Anonmoly66.9072
Mean Motion14.91031898
Decay Rate-0.00048577
L11 55157U 23004T 23013.91667824 -.00048577 00000+0 -49500-2 0 9996
L22 55157 86.5107 284.1404 0010698 199.8187 66.9072 14.91031898 1300



Live tracking and technical data element details for ONEWEB-0616 (NORAD 55157). ONEWEB-0616 can be tracked NOW for your location showing map with azimuth and elevation plus other details from your city location.







IsCatalogInMostPopularTable: catalog: 55157, numindb: 3
Update: records affected: 1



GetName: 55157 ONEWEB-0616

Hit Count: updated at: Tue, 07 Feb 2023 14:04:04 GMT